Showing default

COSMOS 1261, 12376

Orbit data source: Space-Track

COSMOS 1261, 12376 is a payload satellite owned by PVO (CIS) in HEO that was launched on Tue, 31 Mar 1981 UTC via an MOLNIYA 8K78M launch vehicle from the Plesetsk Missile And Space Complex (PKMTR). Payload-class satellites include a variety of spacecraft equipped with specific instruments for various scientific and technological missions. These include communications satellites like Starlink; space stations such as the ISS; scientific satellites like the Hubble; Earth observation satellites from companies like Planet Labs, Umbra, and HawkEye 360; GPS; miniature CubeSats for education and research; and military/defense satellites.

Loading next visibility...
Identifier
12376, 1981-031A
Orbit
HEO
Country
Flag of CISCIS
Related business
Manufacturer
NPOL/KOMET
Mission
Spacecraft
Bus & Motor
OKO, Unknown motor
Mass
~1,250 kg wet, ~1,150 kg dry
Launch date (UTC)
1981-03-31 (45 years ago)
Launch vehicle
MOLNIYA 8K78M
Launch site
Plesetsk Missile And Space Complex (PKMTR)
Object type
Payload
Rocket body
Debris
Shape & HBR
Unknown
Radar Cross Section
Large (>1 m²)

Expand to show TLE details & history
Last TLE update: 1 day ago

TLE from 1 day ago
0 COSMOS 1261
1 12376U 81031A   25353.25795456 -.00000686  00000-0  00000+0 0  9993
2 12376  68.6858 100.0317 5953875 355.2765   0.8772  2.00881871223869
Epoch: 2025-12-19T06:11Z
TLE epoch observation values (Epoch: 2025-12-19T06:11:27.273Z)
Latitude
0.00016°
Longitude
-80.93489°
Altitude
4,356.338 km
Speed
7.697 km/s
True Right ascension
06h 40m 07s
True Declination
0° 00' 01"
Sunlit
Object was in full shadow at epoch
Visualization orbit readout
Latitude
Unknown
Longitude
Unknown
Altitude
Unknown
Speed
Unknown
Apparent Right ascension
Unknown
Apparent Declination
Unknown
Sunlit
N/A
Visualization observer readout
Local Sidereal Time
16:47:10
Azimuth
Unknown
Elevation
Unknown
Doppler factor
Unknown
Orbital elements
Apogee altitude
35,949.626 km
Perigee altitude
4,356.774 km
Semi-major axis
26,531.337 km
Eccentricity
0.59539
Inclination
68.6858°
RAAN
100.0317°
Arg. of periapsis
355.2765°
True anomaly
4.30198°
Mean anomaly
0.8772°
Eccentric anomaly
2.16724°
Mean motion
0.50223 °/min
Orbital period
716.8 mins
BSTAR
0
Loading maneuver chart data...
Computing Atmospheric mass density...
Loading historical data...
Loading historical data...
Loading historical data...
Loading historical data...
Loading historical data...
Loading historical data...
Loading historical data...

Documentation

Showing up to 5 results
|